DLH161 LIMC-EDDF

Flight info

Callsign DLH161
Flight time 1h 4m
Altitude 32000
Route PEPAG DCT ABESI N851 UTAVO DCT ROLSA DCT LADOL T163 EMPAX EMPAX5C
Aircraft A359/H-SDE2E3GHIJ3J4J5LM1ORWXY/LB1D1

Departure

Time 2026-05-05 04:14
Airport Milan Malpensa International Airport (LIMC)

Arrival

Time 2026-05-05 05:18
Airport Frankfurt Main Airport (EDDF)
Time Latitude Longitude Altitude Speed Heading
2026-05-05 03:42 45.62508 8.71770 747 ft 0 kts 259°
2026-05-05 03:57 45.62511 8.71790 743 ft 4 kts 261°
2026-05-05 03:58 45.62516 8.71826 743 ft 2 kts 251°
2026-05-05 03:58 45.62525 8.71853 743 ft 4 kts 212°
2026-05-05 03:58 45.62547 8.71859 743 ft 2 kts 169°
2026-05-05 03:58 45.62572 8.71852 743 ft 4 kts 169°
2026-05-05 03:59 45.62596 8.71845 744 ft 1 kts 169°
2026-05-05 03:59 45.62597 8.71845 743 ft 0 kts 169°
2026-05-05 04:04 45.62596 8.71845 747 ft 2 kts 169°
2026-05-05 04:04 45.62556 8.71856 740 ft 7 kts 169°
2026-05-05 04:04 45.62499 8.71871 744 ft 9 kts 169°
2026-05-05 04:05 45.62431 8.71890 746 ft 11 kts 169°
2026-05-05 04:05 45.62347 8.71914 746 ft 13 kts 169°
2026-05-05 04:05 45.62252 8.71940 744 ft 14 kts 169°
2026-05-05 04:05 45.62149 8.71969 746 ft 16 kts 169°
2026-05-05 04:06 45.62036 8.72000 743 ft 17 kts 169°
2026-05-05 04:06 45.61936 8.72028 744 ft 11 kts 169°
2026-05-05 04:06 45.61853 8.72055 744 ft 11 kts 154°
2026-05-05 04:06 45.61837 8.72108 744 ft 6 kts 93°
2026-05-05 04:07 45.61845 8.72187 746 ft 10 kts 80°
2026-05-05 04:07 45.61859 8.72298 745 ft 12 kts 82°
2026-05-05 04:07 45.61818 8.72368 746 ft 11 kts 159°
2026-05-05 04:07 45.61733 8.72396 746 ft 14 kts 167°
2026-05-05 04:08 45.61624 8.72425 745 ft 18 kts 169°
2026-05-05 04:08 45.61500 8.72459 745 ft 16 kts 169°
2026-05-05 04:08 45.61382 8.72491 744 ft 19 kts 169°
2026-05-05 04:08 45.61247 8.72529 745 ft 17 kts 168°
2026-05-05 04:09 45.61145 8.72558 745 ft 13 kts 169°
2026-05-05 04:09 45.61080 8.72635 744 ft 13 kts 104°
2026-05-05 04:09 45.61093 8.72778 747 ft 16 kts 80°
2026-05-05 04:09 45.61115 8.72948 744 ft 19 kts 78°
2026-05-05 04:10 45.61193 8.73109 745 ft 22 kts 32°
2026-05-05 04:10 45.61312 8.73221 744 ft 15 kts 34°
2026-05-05 04:10 45.61411 8.73264 747 ft 17 kts 353°
2026-05-05 04:10 45.61531 8.73232 744 ft 15 kts 348°
2026-05-05 04:11 45.61601 8.73236 745 ft 9 kts 40°
2026-05-05 04:11 45.61625 8.73338 746 ft 13 kts 79°
2026-05-05 04:11 45.61612 8.73476 744 ft 16 kts 117°
2026-05-05 04:11 45.61587 8.73608 747 ft 12 kts 88°
2026-05-05 04:12 45.61604 8.73711 743 ft 6 kts 59°
2026-05-05 04:12 45.61647 8.73727 744 ft 8 kts 355°
2026-05-05 04:12 45.61661 8.73723 742 ft 0 kts 349°
2026-05-05 04:13 45.61663 8.73723 741 ft 4 kts 349°
2026-05-05 04:14 45.61840 8.73676 744 ft 46 kts 349°
2026-05-05 04:14 45.62347 8.73534 747 ft 117 kts 349°
2026-05-05 04:14 45.63446 8.73229 902 ft 194 kts 348°
2026-05-05 04:14 45.64870 8.72840 1876 ft 217 kts 351°
2026-05-05 04:15 45.66389 8.73128 2950 ft 227 kts 30°
2026-05-05 04:15 45.67427 8.74715 4206 ft 214 kts 61°
2026-05-05 04:15 45.68162 8.76518 5396 ft 207 kts 60°
2026-05-05 04:15 45.69004 8.78198 6412 ft 209 kts 54°
2026-05-05 04:16 45.69984 8.79767 7316 ft 215 kts 50°
2026-05-05 04:16 45.71075 8.81284 8222 ft 223 kts 47°
2026-05-05 04:16 45.72140 8.82919 9117 ft 225 kts 61°
2026-05-05 04:16 45.72635 8.84984 9947 ft 220 kts 93°
2026-05-05 04:17 45.72283 8.87128 10586 ft 228 kts 123°
2026-05-05 04:17 45.71376 8.89040 11391 ft 236 kts 130°
2026-05-05 04:17 45.70371 8.90936 12319 ft 241 kts 130°
2026-05-05 04:17 45.69353 8.92874 13287 ft 246 kts 130°
2026-05-05 04:18 45.68321 8.94864 14189 ft 252 kts 130°
2026-05-05 04:18 45.67274 8.96903 15027 ft 257 kts 130°
2026-05-05 04:18 45.66206 8.98992 15866 ft 263 kts 129°
2026-05-05 04:18 45.65186 9.01156 16715 ft 270 kts 122°
2026-05-05 04:19 45.64599 9.03780 17455 ft 289 kts 101°
2026-05-05 04:19 45.64514 9.06767 17865 ft 313 kts 92°
2026-05-05 04:19 45.64561 9.09984 18254 ft 334 kts 92°
2026-05-05 04:19 45.64612 9.13401 18596 ft 354 kts 92°
2026-05-05 04:20 45.64652 9.17015 18942 ft 373 kts 92°
2026-05-05 04:20 45.64682 9.20804 19291 ft 391 kts 92°
2026-05-05 04:20 45.64708 9.24766 19796 ft 404 kts 92°
2026-05-05 04:20 45.64742 9.28827 20478 ft 413 kts 91°
2026-05-05 04:21 45.65091 9.32765 21160 ft 424 kts 78°
2026-05-05 04:21 45.65814 9.35606 21698 ft 431 kts 65°
2026-05-05 04:21 45.67500 9.39099 22531 ft 441 kts 47°
2026-05-05 04:21 45.69893 9.41780 23208 ft 447 kts 28°
2026-05-05 04:22 45.72802 9.43356 23772 ft 451 kts 10°
2026-05-05 04:22 45.75921 9.43621 24390 ft 450 kts 351°
2026-05-05 04:22 45.78972 9.42535 25046 ft 445 kts 333°
2026-05-05 04:22 45.81591 9.40249 25734 ft 439 kts 315°
2026-05-05 04:23 45.83627 9.37041 26384 ft 435 kts 301°
2026-05-05 04:23 45.85331 9.33508 26993 ft 438 kts 299°
2026-05-05 04:23 45.87058 9.29873 27669 ft 442 kts 300°
2026-05-05 04:23 45.88829 9.26237 28302 ft 447 kts 301°
2026-05-05 04:24 45.90638 9.22587 28914 ft 451 kts 301°
2026-05-05 04:24 45.92477 9.18911 29527 ft 456 kts 301°
2026-05-05 04:24 45.94405 9.15282 30103 ft 462 kts 305°
2026-05-05 04:25 45.99419 9.09203 30996 ft 485 kts 326°
2026-05-05 04:25 46.02522 9.07167 31497 ft 494 kts 336°
2026-05-05 04:25 46.05875 9.05920 31888 ft 500 kts 346°
2026-05-05 04:26 46.12801 9.04528 31989 ft 504 kts 350°
2026-05-05 04:26 46.19797 9.03562 31990 ft 505 kts 352°
2026-05-05 04:27 46.26800 9.02747 31991 ft 505 kts 352°
2026-05-05 04:27 46.33795 9.01887 31990 ft 504 kts 351°
2026-05-05 04:28 46.40782 9.00965 31981 ft 504 kts 351°
2026-05-05 04:28 46.47763 9.00015 31967 ft 504 kts 351°
2026-05-05 04:29 46.54747 8.99072 31982 ft 504 kts 351°
2026-05-05 04:29 46.61733 8.98129 31972 ft 504 kts 351°
2026-05-05 04:30 46.68705 8.97184 31975 ft 503 kts 351°
2026-05-05 04:30 46.75682 8.96236 31957 ft 503 kts 351°
2026-05-05 04:31 46.82671 8.95286 31936 ft 504 kts 351°
2026-05-05 04:31 46.89660 8.94335 31919 ft 504 kts 351°
2026-05-05 04:32 46.96629 8.93382 31918 ft 503 kts 351°
2026-05-05 04:32 47.03611 8.92414 31913 ft 504 kts 351°
2026-05-05 04:33 47.10579 8.91456 31911 ft 503 kts 351°
2026-05-05 04:33 47.17538 8.90500 31913 ft 502 kts 351°
2026-05-05 04:34 47.24505 8.89537 31912 ft 502 kts 351°
2026-05-05 04:34 47.31493 8.89152 31907 ft 504 kts 359°
2026-05-05 04:35 47.38466 8.89552 31910 ft 505 kts 360°
2026-05-05 04:35 47.45477 8.90076 31912 ft 504 kts
2026-05-05 04:36 47.52377 8.90599 31918 ft 504 kts
2026-05-05 04:36 47.59249 8.91106 31919 ft 504 kts 360°
2026-05-05 04:37 47.66257 8.91618 31924 ft 504 kts 360°
2026-05-05 04:37 47.73251 8.92128 31922 ft 505 kts 360°
2026-05-05 04:38 47.80246 8.92639 31922 ft 505 kts 360°
2026-05-05 04:38 47.87266 8.93155 31922 ft 505 kts 360°
2026-05-05 04:39 47.94285 8.93672 31919 ft 505 kts 360°
2026-05-05 04:39 48.01308 8.94190 31926 ft 506 kts 360°
2026-05-05 04:40 48.08363 8.94712 31911 ft 508 kts 360°
2026-05-05 04:40 48.15422 8.95237 31911 ft 508 kts 360°
2026-05-05 04:41 48.22475 8.96079 31906 ft 509 kts
2026-05-05 04:41 48.29514 8.97229 31903 ft 509 kts
2026-05-05 04:42 48.36550 8.98329 31909 ft 507 kts
2026-05-05 04:42 48.43564 8.99407 31908 ft 507 kts
2026-05-05 04:43 48.50586 9.00477 31908 ft 507 kts
2026-05-05 04:43 48.54095 9.01014 31793 ft 508 kts
2026-05-05 04:43 48.57614 9.01553 31130 ft 508 kts
2026-05-05 04:43 48.61147 9.02093 30076 ft 513 kts
2026-05-05 04:44 48.64700 9.02666 29002 ft 515 kts
2026-05-05 04:44 48.68235 9.03499 28230 ft 511 kts
2026-05-05 04:44 48.71711 9.04385 27599 ft 503 kts
2026-05-05 04:44 48.73988 9.04956 27186 ft 499 kts
2026-05-05 04:45 48.77394 9.05797 26536 ft 493 kts
2026-05-05 04:45 48.81852 9.06881 25681 ft 486 kts
2026-05-05 04:45 48.84098 9.07424 25257 ft 483 kts
2026-05-05 04:45 48.87395 9.08219 24627 ft 478 kts
2026-05-05 04:46 48.90672 9.08939 24009 ft 472 kts
2026-05-05 04:46 48.93922 9.09384 23382 ft 468 kts
2026-05-05 04:46 48.97151 9.09786 22708 ft 462 kts
2026-05-05 04:46 49.00311 9.10199 22092 ft 456 kts
2026-05-05 04:47 49.03445 9.10627 21481 ft 450 kts
2026-05-05 04:47 49.06542 9.11055 20886 ft 444 kts
2026-05-05 04:47 49.09600 9.11483 20290 ft 439 kts
2026-05-05 04:47 49.12628 9.11910 19687 ft 434 kts
2026-05-05 04:48 49.15622 9.12335 19086 ft 430 kts
2026-05-05 04:48 49.18588 9.12758 18487 ft 427 kts
2026-05-05 04:48 49.21541 9.13181 17843 ft 423 kts
2026-05-05 04:48 49.24459 9.13599 17203 ft 419 kts
2026-05-05 04:49 49.27342 9.14026 16584 ft 414 kts
2026-05-05 04:49 49.30172 9.14787 15973 ft 411 kts 11°
2026-05-05 04:49 49.32956 9.15753 15385 ft 408 kts 12°
2026-05-05 04:49 49.35706 9.16735 14782 ft 404 kts 12°
2026-05-05 04:50 49.38434 9.17709 14181 ft 401 kts 12°
2026-05-05 04:50 49.41147 9.18675 13545 ft 399 kts 12°
2026-05-05 04:50 49.43844 9.19634 12906 ft 395 kts 12°
2026-05-05 04:50 49.46506 9.20581 12294 ft 391 kts 12°
2026-05-05 04:51 49.49143 9.21520 11704 ft 387 kts 12°
2026-05-05 04:51 49.51752 9.22449 11117 ft 383 kts 12°
2026-05-05 04:51 49.54298 9.23354 10692 ft 380 kts 12°
2026-05-05 04:51 49.56918 9.24287 10611 ft 391 kts 12°
2026-05-05 04:52 49.59599 9.25246 10519 ft 385 kts 12°
2026-05-05 04:52 49.62108 9.26147 10365 ft 366 kts 12°
2026-05-05 04:52 49.64529 9.27017 10226 ft 349 kts 12°
2026-05-05 04:52 49.66839 9.27847 10086 ft 333 kts 12°
2026-05-05 04:53 49.69048 9.28640 9950 ft 318 kts 12°
2026-05-05 04:53 49.71153 9.29397 9849 ft 303 kts 12°
2026-05-05 04:53 49.73199 9.30132 9780 ft 302 kts 12°
2026-05-05 04:53 49.75252 9.30870 9707 ft 303 kts 12°
2026-05-05 04:54 49.77304 9.31608 9658 ft 303 kts 12°
2026-05-05 04:54 49.79354 9.32346 9616 ft 302 kts 12°
2026-05-05 04:54 49.81404 9.33082 9578 ft 302 kts 12°
2026-05-05 04:54 49.83480 9.33434 9512 ft 301 kts 354°
2026-05-05 04:55 49.85447 9.32525 9434 ft 294 kts 327°
2026-05-05 04:55 49.86924 9.30413 9365 ft 288 kts 301°
2026-05-05 04:55 49.87706 9.27613 9295 ft 283 kts 283°
2026-05-05 04:55 49.88240 9.24672 9221 ft 283 kts 283°
2026-05-05 04:56 49.88774 9.21731 9153 ft 283 kts 283°
2026-05-05 04:56 49.89319 9.18794 9086 ft 283 kts 283°
2026-05-05 04:56 49.89868 9.15869 9010 ft 283 kts 283°
2026-05-05 04:56 49.90420 9.12939 8938 ft 283 kts 283°
2026-05-05 04:57 49.90974 9.10013 8888 ft 282 kts 283°
2026-05-05 04:57 49.91526 9.07096 8801 ft 281 kts 283°
2026-05-05 04:57 49.92077 9.04185 8735 ft 281 kts 283°
2026-05-05 04:57 49.92632 9.01287 8662 ft 281 kts 283°
2026-05-05 04:58 49.93187 8.98384 8591 ft 281 kts 283°
2026-05-05 04:58 49.93740 8.95480 8512 ft 280 kts 283°
2026-05-05 04:58 49.94292 8.92582 8447 ft 280 kts 283°
2026-05-05 04:58 49.94842 8.89687 8383 ft 280 kts 283°
2026-05-05 04:59 49.95393 8.86786 8243 ft 279 kts 283°
2026-05-05 04:59 49.95941 8.83898 8156 ft 279 kts 283°
2026-05-05 04:59 49.96488 8.81008 8072 ft 279 kts 283°
2026-05-05 04:59 49.97034 8.78125 8017 ft 279 kts 283°
2026-05-05 05:00 49.97579 8.75235 7939 ft 278 kts 283°
2026-05-05 05:00 49.97971 8.72307 7862 ft 275 kts 270°
2026-05-05 05:00 49.97714 8.69410 7793 ft 270 kts 250°
2026-05-05 05:00 49.97088 8.66669 7741 ft 269 kts 247°
2026-05-05 05:01 49.96418 8.63958 7671 ft 269 kts 247°
2026-05-05 05:01 49.95750 8.61238 7597 ft 269 kts 247°
2026-05-05 05:01 49.95088 8.58519 7525 ft 269 kts 247°
2026-05-05 05:01 49.94430 8.55807 7471 ft 269 kts 247°
2026-05-05 05:02 49.93773 8.53091 7403 ft 269 kts 247°
2026-05-05 05:02 49.93117 8.50380 7334 ft 268 kts 247°
2026-05-05 05:02 49.92484 8.47769 7272 ft 268 kts 247°
2026-05-05 05:02 49.91829 8.45064 7219 ft 268 kts 247°
2026-05-05 05:03 49.91177 8.42357 7158 ft 268 kts 247°
2026-05-05 05:03 49.90524 8.39652 7087 ft 267 kts 247°
2026-05-05 05:03 49.89874 8.36956 7020 ft 267 kts 247°
2026-05-05 05:03 49.89221 8.34258 6949 ft 267 kts 247°
2026-05-05 05:04 49.88565 8.31553 6877 ft 268 kts 247°
2026-05-05 05:04 49.87910 8.28842 6807 ft 269 kts 247°
2026-05-05 05:04 49.87252 8.26130 6713 ft 268 kts 247°
2026-05-05 05:04 49.86602 8.23463 6594 ft 268 kts 247°
2026-05-05 05:05 49.85942 8.20760 6468 ft 268 kts 247°
2026-05-05 05:05 49.85290 8.18064 6348 ft 267 kts 247°
2026-05-05 05:05 49.84630 8.15366 6232 ft 266 kts 247°
2026-05-05 05:05 49.83973 8.12683 6101 ft 266 kts 247°
2026-05-05 05:06 49.83318 8.10005 5980 ft 266 kts 248°
2026-05-05 05:06 49.82665 8.07328 5845 ft 266 kts 247°
2026-05-05 05:06 49.82009 8.04656 5687 ft 266 kts 247°
2026-05-05 05:06 49.81353 8.01986 5430 ft 265 kts 247°
2026-05-05 05:07 49.80752 7.99530 5244 ft 264 kts 248°
2026-05-05 05:07 49.80098 7.96870 5094 ft 265 kts 247°
2026-05-05 05:07 49.79444 7.94208 4995 ft 264 kts 248°
2026-05-05 05:07 49.79024 7.91424 4987 ft 267 kts 263°
2026-05-05 05:08 49.79216 7.88570 4986 ft 270 kts 286°
2026-05-05 05:08 49.80232 7.86142 4982 ft 275 kts 318°
2026-05-05 05:08 49.81960 7.84938 4968 ft 278 kts 351°
2026-05-05 05:08 49.83861 7.85274 4853 ft 277 kts 18°
2026-05-05 05:09 49.85580 7.86595 4722 ft 276 kts 36°
2026-05-05 05:09 49.86944 7.88653 4612 ft 274 kts 56°
2026-05-05 05:09 49.87786 7.91277 4479 ft 271 kts 71°
2026-05-05 05:09 49.88422 7.94024 4352 ft 271 kts 72°
2026-05-05 05:10 49.89052 7.96771 4218 ft 270 kts 71°
2026-05-05 05:10 49.89697 7.99504 4092 ft 270 kts 71°
2026-05-05 05:10 49.90350 8.02229 3966 ft 269 kts 71°
2026-05-05 05:10 49.91003 8.04929 3924 ft 263 kts 70°
2026-05-05 05:11 49.91630 8.07496 3926 ft 246 kts 70°
2026-05-05 05:11 49.92230 8.09919 3927 ft 238 kts 70°
2026-05-05 05:11 49.92818 8.12285 3926 ft 228 kts 69°
2026-05-05 05:11 49.93404 8.14483 3917 ft 212 kts 70°
2026-05-05 05:12 49.93918 8.16541 3918 ft 197 kts 71°
2026-05-05 05:12 49.94391 8.18502 3926 ft 193 kts 71°
2026-05-05 05:12 49.94859 8.20452 3929 ft 192 kts 71°
2026-05-05 05:12 49.95310 8.22341 3921 ft 178 kts 71°
2026-05-05 05:13 49.95727 8.24084 3947 ft 168 kts 71°
2026-05-05 05:13 49.96118 8.25715 3932 ft 156 kts 71°
2026-05-05 05:13 49.96495 8.27289 3872 ft 154 kts 71°
2026-05-05 05:13 49.96867 8.28841 3680 ft 152 kts 70°
2026-05-05 05:14 49.97236 8.30381 3474 ft 152 kts 70°
2026-05-05 05:14 49.97599 8.31896 3253 ft 147 kts 70°
2026-05-05 05:14 49.97947 8.33350 3058 ft 140 kts 70°
2026-05-05 05:14 49.98279 8.34733 2869 ft 134 kts 70°
2026-05-05 05:15 49.98598 8.36067 2706 ft 133 kts 70°
2026-05-05 05:15 49.98924 8.37428 2519 ft 132 kts 70°
2026-05-05 05:15 49.99244 8.38765 2346 ft 132 kts 70°
2026-05-05 05:15 49.99559 8.40079 2166 ft 131 kts 70°
2026-05-05 05:16 49.99876 8.41402 1992 ft 131 kts 69°
2026-05-05 05:16 50.00192 8.42726 1814 ft 130 kts 69°
2026-05-05 05:16 50.00508 8.44045 1632 ft 130 kts 69°
2026-05-05 05:16 50.00821 8.45362 1461 ft 130 kts 70°
2026-05-05 05:17 50.01131 8.46687 1276 ft 130 kts 69°
2026-05-05 05:17 50.01452 8.47990 1093 ft 129 kts 68°
2026-05-05 05:17 50.01774 8.49294 932 ft 129 kts 70°
2026-05-05 05:17 50.02084 8.50611 742 ft 130 kts 70°
2026-05-05 05:18 50.02402 8.51920 566 ft 129 kts 70°
2026-05-05 05:18 50.02713 8.53229 416 ft 129 kts 72°
2026-05-05 05:18 50.03019 8.54522 350 ft 119 kts 70°
2026-05-05 05:18 50.03217 8.55348 355 ft 42 kts 70°
2026-05-05 05:19 50.03289 8.55615 359 ft 26 kts 59°
2026-05-05 05:19 50.03384 8.55788 359 ft 21 kts 41°
2026-05-05 05:19 50.03483 8.55917 360 ft 16 kts 39°
2026-05-05 05:19 50.03539 8.55989 364 ft 9 kts 39°
2026-05-05 05:20 50.03562 8.56018 362 ft 0 kts 39°
2026-05-05 05:22 50.03587 8.56050 364 ft 10 kts 39°
2026-05-05 05:22 50.03643 8.56139 367 ft 14 kts 54°
2026-05-05 05:23 50.03689 8.56292 365 ft 18 kts 70°
2026-05-05 05:23 50.03735 8.56492 363 ft 21 kts 69°
2026-05-05 05:23 50.03781 8.56631 364 ft 12 kts 39°
2026-05-05 05:23 50.03857 8.56672 367 ft 10 kts 12°
2026-05-05 05:24 50.03938 8.56698 368 ft 14 kts 11°
2026-05-05 05:24 50.04042 8.56729 368 ft 17 kts 11°
2026-05-05 05:24 50.04166 8.56769 368 ft 16 kts 11°
2026-05-05 05:24 50.04272 8.56803 373 ft 17 kts 12°
2026-05-05 05:25 50.04372 8.56836 371 ft 12 kts 10°
2026-05-05 05:25 50.04435 8.56851 371 ft 6 kts
2026-05-05 05:25 50.04470 8.56860 371 ft 0 kts
2026-05-05 05:25 50.04477 8.56862 365 ft 3 kts
2026-05-05 05:26 50.04502 8.56850 373 ft 4 kts 330°
2026-05-05 05:26 50.04517 8.56824 369 ft 4 kts 304°
2026-05-05 05:26 50.04531 8.56785 371 ft 3 kts 296°
2026-05-05 05:26 50.04537 8.56764 369 ft 2 kts 295°
2026-05-05 05:27 50.04541 8.56751 371 ft 1 kts 295°
2026-05-05 05:27 50.04543 8.56744 368 ft 0 kts 295°